This is the latest recevied weather packets stored in our database for station/object DH0GMA. If no packets are shown the sender has not sent any weather packets the latest 10 day(s).
| Time | Temp. | Humidity | Pressure | Rain* | Wind** | Luminosity | Snow |
|---|---|---|---|---|---|---|---|
| 1777790703 | 13.89° C | 69% | 1015.2 hPa | 0 mm | - | - | - |
| 1777790103 | 13.33° C | 72% | 1015.3 hPa | 0 mm | - | - | - |
| 1777789503 | 12.22° C | 74% | 1015.3 hPa | 0 mm | - | - | - |
| 1777788904 | 11.67° C | 75% | 1015.2 hPa | 0 mm | - | - | - |
| 1777788303 | 11.11° C | 76% | 1015.3 hPa | 0 mm | - | - | - |
| 1777787703 | 11.11° C | 78% | 1015.3 hPa | 0 mm | - | - | - |
| 1777787104 | 10° C | 81% | 1015.2 hPa | 0 mm | - | - | - |
| 1777786504 | 8.89° C | 81% | 1015.1 hPa | 0 mm | - | - | - |
| 1777785904 | 8.33° C | 83% | 1015.2 hPa | 0 mm | - | - | - |
| 1777785304 | 7.78° C | 84% | 1015.1 hPa | 0 mm | - | - | - |
| 1777784704 | 7.78° C | 84% | 1015.2 hPa | 0 mm | - | - | - |
| 1777784104 | 7.22° C | 85% | 1015.2 hPa | 0 mm | - | - | - |
| 1777783504 | 7.22° C | 84% | 1015.2 hPa | 0 mm | - | - | - |
| 1777782903 | 7.22° C | 84% | 1015.2 hPa | 0 mm | - | - | - |
| 1777782304 | 7.22° C | 84% | 1015.3 hPa | 0 mm | - | - | - |
| 1777781704 | 7.22° C | 84% | 1015.1 hPa | 0 mm | - | - | - |
| 1777781104 | 7.22° C | 83% | 1015.1 hPa | 0 mm | - | - | - |
| 1777780504 | 7.22° C | 83% | 1015.2 hPa | 0 mm | - | - | - |
| 1777779904 | 7.22° C | 82% | 1015.2 hPa | 0 mm | - | - | - |
| 1777779304 | 7.78° C | 81% | 1015.1 hPa | 0 mm | - | - | - |
| 1777778704 | 7.78° C | 81% | 1015.1 hPa | 0 mm | - | - | - |
| 1777778103 | 7.78° C | 80% | 1015 hPa | 0 mm | - | - | - |
| 1777777504 | 8.33° C | 80% | 1015.1 hPa | 0 mm | - | - | - |
| 1777776904 | 8.33° C | 79% | 1015.2 hPa | 0 mm | - | - | - |
| 1777776304 | 8.33° C | 79% | 1015 hPa | 0 mm | - | - | - |
* Rain latest hour (hover to see other rain measurements)
** Current wind speed in m/s (hover to see current wind gust speed)